GW6079 Weather Reports


Display with metric or nautical units.
time (UTC)temp
F
wind
direction
speed
MPH
gust
MPH
rain 1hr
in
rain 24hr
in
rain mn
in
humidity
%
barometer
mb
20260507002507 43 73 0.0 2.0 0.00 0.00 0.00 97 1008.8
20260507002008 43 57 3.0 4.0 0.00 0.00 0.00 97 1008.5
20260507001507 43 63 3.0 3.0 0.00 0.00 0.00 97 1008.8
20260507001008 43 41 2.0 4.0 0.00 0.00 0.00 97 1008.5
20260507000508 43 59 3.0 4.0 0.00 0.00 0.00 97 1008.1
20260507000007 43 71 3.0 4.0 0.00 0.00 0.00 97 1008.5
20260506235507 43 51 3.0 4.0 0.00 0.00 0.00 97 1008.1
20260506235007 43 66 3.0 3.0 0.00 0.00 0.00 97 1008.1
20260506234507 43 37 5.0 5.0 0.00 0.00 0.00 96 1008.1
20260506234006 43 98 1.0 3.0 0.00 0.00 0.00 96 1008.1
20260506233508 43 99 2.0 5.0 0.00 0.00 0.00 96 1008.1
20260506233007 43 66 5.0 6.0 0.00 0.00 0.00 96 1008.1
20260506232506 43 146 3.0 3.0 0.00 0.00 0.00 96 1007.8
20260506232007 43 78 3.0 6.0 0.00 0.00 0.00 96 1007.8
20260506231508 43 83 3.0 5.0 0.00 0.00 0.00 97 1007.5
20260506231006 44 38 4.0 7.0 0.00 0.00 0.00 97 1007.1
20260506230508 44 104 4.0 11.0 0.00 0.00 0.00 97 1007.1
20260506230007 44 69 3.0 5.0 0.00 0.00 0.00 97 1006.8
20260506225510 44 104 3.0 6.0 0.00 0.00 0.00 97 1007.1
20260506225009 44 132 3.0 5.0 0.00 0.00 0.00 97 1006.8
20260506224508 44 139 2.0 4.0 0.00 0.00 0.00 96 1006.8
20260506224007 44 125 2.0 4.0 0.00 0.00 0.00 96 1006.8
20260506223507 44 65 3.0 5.0 0.00 0.00 0.00 96 1006.4
20260506223008 44 85 4.0 5.0 0.00 0.00 0.00 97 1006.8
20260506222507 45 80 4.0 6.0 0.00 0.00 0.00 96 1006.4
20260506222007 44 79 2.0 5.0 0.00 0.00 0.00 96 1006.4
20260506221507 44 50 3.0 6.0 0.00 0.00 0.00 96 1006.4
20260506221008 44 38 4.0 5.0 0.00 0.00 0.00 96 1006.4
20260506220506 44 57 5.0 5.0 0.00 0.00 0.00 96 1006.1
20260506220009 44 55 7.0 7.0 0.00 0.00 0.00 96 1006.4
20260506215507 44 48 4.0 6.0 0.00 0.00 0.00 96 1006.4
20260506215007 44 59 3.0 4.0 0.00 0.00 0.00 96 1006.1
20260506214509 44 46 2.0 5.0 0.00 0.00 0.00 96 1005.8
20260506214007 44 99 3.0 5.0 0.00 0.00 0.00 97 1006.1
20260506213507 44 133 4.0 6.0 0.00 0.00 0.00 97 1005.8
20260506213005 44 81 4.0 5.0 0.00 0.00 0.00 97 1005.8
20260506212509 45 69 4.0 7.0 0.00 0.00 0.00 97 1005.8
20260506212005 45 121 3.0 3.0 0.00 0.00 0.00 96 1005.8
20260506211507 45 68 3.0 5.0 0.00 0.00 0.00 96 1005.8
20260506211008 45 105 2.0 5.0 0.00 0.00 0.00 96 1005.8
20260506210508 45 288 0.0 4.0 0.00 0.00 0.00 96 1005.8
20260506210006 45 71 3.0 4.0 0.00 0.00 0.00 96 1005.4
20260506205509 45 56 4.0 6.0 0.00 0.00 0.00 96 1005.4
20260506205011 45 73 0.0 5.0 0.00 0.00 0.00 96 1005.4
20260506204507 45 57 5.0 7.0 0.00 0.00 0.00 96 1005.4
20260506204006 45 51 4.0 5.0 0.00 0.00 0.00 96 1005.4
20260506203508 45 67 3.0 6.0 0.00 0.00 0.00 96 1005.4
20260506203008 45 91 5.0 6.0 0.00 0.00 0.00 96 1005.8
20260506202507 45 114 2.0 6.0 0.00 0.00 0.00 96 1005.4
20260506202012 45 74 2.0 4.0 0.00 0.00 0.00 96 1005.8
20260506201507 45 74 3.0 5.0 0.00 0.00 0.00 96 1005.8
20260506201008 45 51 6.0 9.0 0.00 0.00 0.00 96 1005.1
20260506200508 45 83 5.0 6.0 0.00 0.00 0.00 96 1005.8
20260506200008 45 208 3.0 6.0 0.00 0.00 0.00 96 1005.8
20260506195508 46 35 6.0 10.0 0.00 0.00 0.00 96 1005.8
20260506195006 46 165 4.0 5.0 0.00 0.00 0.00 96 1005.8
20260506194507 46 58 5.0 8.0 0.00 0.00 0.00 96 1005.8
20260506194007 46 226 1.0 4.0 0.00 0.00 0.00 96 1005.8
20260506193508 45 46 7.0 7.0 0.00 0.00 0.00 96 1005.4
20260506193008 45 75 5.0 6.0 0.00 0.00 0.00 96 1005.4
20260506192508 45 49 6.0 8.0 0.00 0.00 0.00 95 1005.8
20260506192006 46 69 3.0 6.0 0.00 0.00 0.00 95 1005.8
20260506191508 46 82 4.0 6.0 0.00 0.00 0.00 95 1005.8
20260506191007 46 281 4.0 5.0 0.00 0.00 0.00 95 1005.8
20260506190508 48 76 4.0 7.0 0.00 0.00 0.00 96 1005.4
20260506190007 48 226 0.0 4.0 0.00 0.00 0.00 96 1005.8
20260506185506 48 44 5.0 6.0 0.00 0.00 0.00 96 1005.4
20260506185008 48 50 4.0 6.0 0.00 0.00 0.00 94 1005.4
20260506184508 51 100 5.0 8.0 0.00 0.00 0.00 93 1005.4
20260506184008 54 45 6.0 8.0 0.00 0.00 0.00 92 1005.1
20260506183507 59 45 6.0 7.0 0.00 0.00 0.00 95 1005.1
20260506183008 59 89 5.0 5.0 0.00 0.00 0.00 95 1005.1
20260506182505 59 314 2.0 4.0 0.00 0.00 0.00 95 1005.1
20260506182007 59 215 5.0 5.0 0.00 0.00 0.00 95 1005.1
20260506181508 59 204 2.0 5.0 0.00 0.00 0.00 94 1005.1
20260506181016 59 202 3.0 6.0 0.00 0.00 0.00 94 1005.1
20260506180508 59 246 1.0 6.0 0.00 0.00 0.00 94 1005.1
20260506180007 59 192 6.0 9.0 0.00 0.00 0.00 94 1005.1
20260506175507 59 172 6.0 6.0 0.00 0.00 0.00 94 1005.1
20260506175006 59 180 8.0 8.0 0.00 0.00 0.00 94 1005.1
20260506174508 59 168 4.0 6.0 0.00 0.00 0.00 94 1005.1
20260506174007 59 180 4.0 7.0 0.00 0.00 0.00 94 1005.1
20260506173508 59 215 2.0 4.0 0.00 0.00 0.00 94 1005.4
20260506173008 59 214 2.0 5.0 0.00 0.00 0.00 95 1005.1
20260506172507 59 209 4.0 5.0 0.00 0.00 0.00 95 1005.4
20260506172007 59 295 1.0 3.0 0.00 0.00 0.00 94 1005.4
20260506171508 59 205 3.0 4.0 0.00 0.00 0.00 95 1005.4
20260506171008 59 200 3.0 3.0 0.00 0.00 0.00 94 1005.8
20260506170508 59 147 2.0 3.0 0.00 0.00 0.00 94 1005.8
20260506170009 58 246 3.0 4.0 0.00 0.00 0.00 95 1005.8
20260506165508 58 324 0.0 3.0 0.00 0.00 0.00 95 1006.1
20260506165009 58 309 2.0 4.0 0.00 0.00 0.00 95 1006.1
20260506164508 58 178 2.0 4.0 0.00 0.00 0.00 95 1006.1
20260506164009 58 226 2.0 5.0 0.00 0.00 0.00 95 1006.1
20260506163508 57 252 1.0 4.0 0.00 0.00 0.00 96 1006.1
20260506163008 57 261 1.0 3.0 0.00 0.00 0.00 96 1006.1
20260506162508 58 168 1.0 3.0 0.00 0.00 0.00 96 1006.1
20260506162008 58 315 2.0 3.0 0.00 0.00 0.00 96 1006.4
20260506161508 58 339 2.0 3.0 0.00 0.00 0.00 96 1006.1
20260506161006 57 50 0.0 2.0 0.00 0.00 0.00 96 1006.4
20260506160510 57 359 1.0 3.0 0.00 0.00 0.00 95 1006.1
20260506160007 57 323 0.0 3.0 0.00 0.00 0.00 95 1006.4
20260506155508 57 344 1.0 3.0 0.00 0.00 0.00 95 1006.8
20260506155008 57 344 0.0 3.0 0.00 0.00 0.00 96 1006.4
20260506154508 57 352 2.0 3.0 0.00 0.00 0.00 96 1006.4
20260506154008 57 332 2.0 4.0 0.00 0.00 0.00 95 1006.4
20260506153509 56 333 1.0 2.0 0.00 0.00 0.00 95 1006.8
20260506153008 56 81 3.0 3.0 0.00 0.00 0.00 95 1006.8
20260506152508 57 308 2.0 2.0 0.00 0.00 0.00 95 1006.8
20260506152007 57 85 0.0 3.0 0.00 0.00 0.00 95 1006.8
20260506151507 56 21 0.0 3.0 0.00 0.00 0.00 95 1007.1
20260506151008 57 294 1.0 2.0 0.00 0.00 0.00 95 1006.8
20260506150508 56 94 2.0 3.0 0.00 0.00 0.00 95 1007.1
20260506150007 56 122 1.0 3.0 0.00 0.00 0.00 95 1007.1
20260506145508 57 300 0.0 3.0 0.00 0.00 0.00 95 1007.5
20260506145007 56 23 2.0 3.0 0.00 0.00 0.00 94 1007.5
20260506144507 56 94 0.0 3.0 0.00 0.00 0.00 94 1007.5
20260506144007 56 159 1.0 4.0 0.00 0.00 0.00 94 1007.5
20260506143507 56 153 2.0 2.0 0.00 0.00 0.00 94 1007.8
20260506143008 56 155 3.0 3.0 0.00 0.00 0.00 94 1007.8
20260506142508 56 162 2.0 3.0 0.00 0.00 0.00 94 1007.8
20260506142008 56 128 0.0 3.0 0.00 0.00 0.00 94 1007.8
20260506141509 56 198 0.0 3.0 0.00 0.00 0.00 95 1007.5
20260506141007 56 133 0.0 3.0 0.00 0.00 0.00 96 1007.5
20260506140509 57 158 3.0 4.0 0.00 0.00 0.00 96 1007.5
20260506140008 56 231 1.0 2.0 0.00 0.00 0.00 96 1007.5
20260506135508 56 103 0.0 3.0 0.00 0.00 0.00 97 1007.5
20260506135008 56 153 0.0 3.0 0.00 0.00 0.00 97 1007.5
20260506134507 56 187 1.0 3.0 0.00 0.00 0.00 97 1007.5
20260506133542 56 311 0.0 2.0 0.00 0.00 0.00 97 1007.5
20260506133008 56 115 0.0 2.0 0.00 0.00 0.00 97 1007.5
20260506132507 56 22 1.0 4.0 0.00 0.00 0.00 97 1007.1
20260506132009 56 47 2.0 3.0 0.00 0.00 0.00 97 1007.1
20260506131508 56 56 2.0 3.0 0.00 0.00 0.00 97 1007.1
20260506131007 56 48 3.0 4.0 0.00 0.00 0.00 97 1007.5
20260506130507 56 29 1.0 3.0 0.00 0.00 0.00 97 1007.5
20260506130009 56 48 2.0 3.0 0.00 0.00 0.00 97 1007.5
20260506125507 56 39 2.0 3.0 0.00 0.00 0.00 97 1007.8
20260506125007 55 47 2.0 3.0 0.00 0.00 0.00 97 1007.8
20260506124508 55 67 2.0 3.0 0.00 0.00 0.00 97 1007.8
20260506124008 55 64 2.0 3.0 0.00 0.00 0.00 97 1008.1
20260506123506 55 51 3.0 3.0 0.00 0.00 0.00 97 1008.1
20260506123008 55 86 0.0 2.0 0.00 0.00 0.00 97 1008.1
20260506122508 55 39 1.0 2.0 0.00 0.00 0.00 96 1008.1
20260506122007 55 73 2.0 3.0 0.00 0.00 0.00 96 1008.1
20260506121508 55 31 1.0 3.0 0.00 0.00 0.00 96 1007.8
20260506121007 55 49 2.0 2.0 0.00 0.00 0.00 96 1007.5
20260506120507 55 46 2.0 4.0 0.00 0.00 0.00 96 1007.8
20260506120007 55 93 0.0 3.0 0.00 0.00 0.00 96 1007.5
20260506115507 54 8 2.0 2.0 0.00 0.00 0.00 96 1007.5
20260506115009 54 51 3.0 4.0 0.00 0.00 0.00 96 1007.1
20260506114508 54 54 3.0 4.0 0.00 0.00 0.00 96 1007.1
20260506114008 54 51 4.0 4.0 0.00 0.00 0.00 96 1007.1
20260506113507 54 41 3.0 4.0 0.00 0.00 0.00 96 1007.5
20260506113006 53 52 4.0 4.0 0.00 0.00 0.00 96 1007.5
20260506112508 53 69 3.0 4.0 0.00 0.00 0.00 96 1007.5
20260506112007 54 57 3.0 3.0 0.00 0.00 0.00 96 1007.5
20260506111507 54 50 1.0 3.0 0.00 0.00 0.00 96 1007.8
20260506111007 53 38 2.0 4.0 0.00 0.00 0.00 96 1007.5
20260506110508 53 30 5.0 6.0 0.00 0.00 0.00 96 1007.5
20260506110008 53 75 2.0 3.0 0.00 0.00 0.00 96 1007.5
20260506105508 53 42 2.0 3.0 0.00 0.00 0.00 96 1007.5
20260506105007 53 74 1.0 2.0 0.00 0.00 0.00 96 1007.5
20260506104508 53 46 4.0 4.0 0.00 0.00 0.00 96 1007.1
20260506104005 53 300 1.0 3.0 0.00 0.00 0.00 96 1007.5
20260506103507 53 38 1.0 3.0 0.00 0.00 0.00 96 1007.1
20260506103008 53 21 0.0 3.0 0.00 0.00 0.00 96 1007.1
20260506102507 53 58 2.0 4.0 0.00 0.00 0.00 96 1006.8
20260506102007 53 4 2.0 2.0 0.00 0.00 0.00 96 1007.1
20260506101507 53 68 3.0 4.0 0.00 0.00 0.00 96 1007.1
20260506101007 53 47 3.0 5.0 0.00 0.00 0.00 96 1006.8
20260506100507 53 39 2.0 5.0 0.00 0.00 0.00 96 1007.1
20260506100008 53 41 4.0 4.0 0.00 0.00 0.00 96 1007.1
20260506095508 54 95 2.0 3.0 0.00 0.00 0.00 95 1007.1
20260506095008 53 351 1.0 3.0 0.00 0.00 0.00 96 1007.1
20260506094509 53 67 3.0 4.0 0.00 0.00 0.00 95 1006.8
20260506094010 53 76 3.0 3.0 0.00 0.00 0.00 95 1006.8
20260506093508 53 28 4.0 6.0 0.00 0.00 0.00 96 1006.8
20260506093007 53 69 1.0 4.0 0.00 0.00 0.00 96 1007.1
20260506092507 54 72 2.0 4.0 0.00 0.00 0.00 95 1007.1
20260506092007 54 73 1.0 4.0 0.00 0.00 0.00 95 1007.1
20260506091507 53 34 3.0 4.0 0.00 0.00 0.00 95 1007.1
20260506091007 53 53 2.0 5.0 0.00 0.00 0.00 95 1006.8
20260506090507 53 22 2.0 3.0 0.00 0.00 0.00 96 1007.1
20260506090006 54 44 2.0 2.0 0.00 0.00 0.00 96 1007.5
20260506085507 54 68 3.0 3.0 0.00 0.00 0.00 95 1007.1
20260506085006 54 35 3.0 4.0 0.00 0.00 0.00 95 1007.1
20260506084508 54 52 3.0 4.0 0.00 0.00 0.00 95 1007.1
20260506084008 54 49 3.0 4.0 0.00 0.00 0.00 95 1007.5
20260506083507 54 32 2.0 3.0 0.00 0.00 0.00 95 1007.5
20260506083005 54 65 3.0 3.0 0.00 0.00 0.00 95 1007.5
20260506082507 54 33 2.0 3.0 0.00 0.00 0.00 95 1007.5
20260506082008 55 68 3.0 4.0 0.00 0.00 0.00 95 1007.1
20260506081508 55 46 2.0 3.0 0.00 0.00 0.00 95 1007.8
20260506081007 55 43 3.0 4.0 0.00 0.00 0.00 95 1007.5
20260506080508 55 36 2.0 3.0 0.00 0.00 0.00 95 1007.8
20260506073508 55 53 4.0 4.0 0.00 0.00 0.00 94 1007.8
20260506073008 55 31 3.0 3.0 0.00 0.00 0.00 94 1007.8
20260506072507 55 40 3.0 3.0 0.00 0.00 0.00 94 1007.5
20260506072008 55 57 2.0 4.0 0.00 0.00 0.00 94 1007.8
20260506071507 56 68 2.0 3.0 0.00 0.00 0.00 94 1007.5
20260506071006 56 54 2.0 3.0 0.00 0.00 0.00 94 1007.5
20260506070507 56 86 2.0 3.0 0.00 0.00 0.00 94 1007.5
20260506062508 57 43 2.0 3.0 0.00 0.00 0.00 93 1007.8
20260506062006 57 354 1.0 3.0 0.00 0.00 0.00 93 1007.8
20260506061507 57 8 2.0 3.0 0.00 0.00 0.00 93 1007.8
20260506061012 57 52 2.0 5.0 0.00 0.00 0.00 93 1007.8
20260506060508 57 29 4.0 5.0 0.00 0.00 0.00 93 1007.5
20260506051009 59 45 5.0 5.0 0.00 0.00 0.00 90 1008.1
20260506050507 59 52 3.0 4.0 0.00 0.00 0.00 89 1008.1
20260506045006 59 48 1.0 3.0 0.00 0.00 0.00 87 1008.8
20260506044505 59 7 1.0 4.0 0.00 0.00 0.00 86 1008.1
20260506044007 60 6 3.0 6.0 0.00 0.00 0.00 85 1008.1
20260506043507 60 69 4.0 5.0 0.00 0.00 0.00 82 1008.1
20260506043008 60 328 2.0 4.0 0.00 0.00 0.00 82 1008.1
20260506042505 60 27 2.0 4.0 0.00 0.00 0.00 82 1007.5
20260506042008 60 70 2.0 3.0 0.00 0.00 0.00 81 1007.8
20260506041513 60 24 2.0 2.0 0.00 0.00 0.00 82 1008.1
20260506041006 60 46 3.0 4.0 0.00 0.00 0.00 81 1008.1
20260506040506 61 61 2.0 3.0 0.00 0.00 0.00 79 1008.1
20260506040007 60 35 1.0 2.0 0.00 0.00 0.00 80 1007.8
20260506035505 60 354 0.0 2.0 0.00 0.00 0.00 81 1008.1
20260506035006 60 168 0.0 2.0 0.00 0.00 0.00 82 1008.1
20260506034506 60 32 1.0 3.0 0.00 0.00 0.00 84 1007.8
20260506034006 60 9 1.0 1.0 0.00 0.00 0.00 83 1007.8
20260506033507 61 37 0.0 1.0 0.00 0.00 0.00 80 1007.8
20260506033007 62 337 1.0 2.0 0.00 0.00 0.00 77 1007.5
20260506032507 62 317 1.0 2.0 0.00 0.00 0.00 76 1007.1
20260506032006 62 180 0.0 1.0 0.00 0.00 0.00 74 1007.5
20260506031507 62 308 2.0 3.0 0.00 0.00 0.00 73 1007.5
20260506031007 62 296 2.0 3.0 0.00 0.00 0.00 73 1007.5
20260506030508 63 184 0.0 3.0 0.00 0.00 0.00 73 1007.5
20260506030008 63 275 2.0 3.0 0.00 0.00 0.00 71 1007.5
20260506025507 63 298 2.0 3.0 0.00 0.00 0.00 72 1007.5
20260506025006 62 214 3.0 3.0 0.00 0.00 0.00 74 1007.5
20260506024506 62 156 1.0 3.0 0.00 0.00 0.00 73 1007.5
20260506024005 62 272 2.0 3.0 0.00 0.00 0.00 75 1007.5
20260506023506 63 186 0.0 2.0 0.00 0.00 0.00 71 1007.5
20260506023008 63 293 1.0 3.0 0.00 0.00 0.00 71 1007.5
20260506022508 64 191 1.0 2.0 0.00 0.00 0.00 69 1007.5
20260506022007 64 319 3.0 3.0 0.00 0.00 0.00 69 1007.1
20260506021507 63 250 1.0 4.0 0.00 0.00 0.00 70 1007.1
20260506021007 63 206 2.0 3.0 0.00 0.00 0.00 71 1007.1
20260506020508 64 146 0.0 2.0 0.00 0.00 0.00 69 1007.1
20260506020007 63 333 1.0 1.0 0.00 0.00 0.00 69 1007.1
20260506015506 63 269 1.0 4.0 0.00 0.00 0.00 70 1007.1
20260506015008 63 327 1.0 3.0 0.00 0.00 0.00 71 1007.1
20260506014507 63 294 3.0 4.0 0.00 0.00 0.00 70 1007.1
20260506014007 64 59 0.0 1.0 0.00 0.00 0.00 70 1006.8
20260506013505 63 230 0.0 3.0 0.00 0.00 0.00 69 1006.8
20260506013006 63 297 1.0 3.0 0.00 0.00 0.00 70 1007.1
20260506012508 63 211 0.0 3.0 0.00 0.00 0.00 70 1006.8
20260506012007 63 286 1.0 2.0 0.00 0.00 0.00 70 1006.8
20260506011506 63 198 1.0 5.0 0.00 0.00 0.00 70 1006.8
20260506011007 62 257 2.0 4.0 0.00 0.00 0.00 73 1006.8
20260506010507 63 37 0.0 3.0 0.00 0.00 0.00 71 1006.8
20260506010006 62 246 2.0 3.0 0.00 0.00 0.00 72 1006.8
20260506005506 62 356 1.0 2.0 0.00 0.00 0.00 73 1006.8
20260506005008 61 123 1.0 3.0 0.00 0.00 0.00 74 1006.4
20260506004507 60 327 1.0 3.0 0.00 0.00 0.00 77 1006.4
20260506004006 61 54 1.0 2.0 0.00 0.00 0.00 77 1006.4
20260506003507 61 59 2.0 2.0 0.00 0.00 0.00 76 1006.1
20260506003007 61 309 2.0 3.0 0.00 0.00 0.00 76 1006.1